BADR-4

Last updated on Tue Sep 22 2026 00:03:11 GMT+0000 (Coordinated Universal Time)

1 29526U 06051A 26264.56724438 .00000153 00000+0 00000+0 0 9992 2 29526 2.2460 79.9363 0004922 100.3864 58.8398 1.00274647 52230
UTC large
Height (km)
Speed (km/s)
/
Latitude / Longitude
Inclination (degrees)
Orbital Period (minutes)
Azimuth
Elevation
Range (km)
Doppler Factor

Next 0 passes for location: London (51.5072 / 0.1276)

No passes found over London.
BADR-4